Location: Shades State Park
(39.9310°N, 87.0690°W)
Time: 09:32:00
(UTC-04:00)

ISS - Visible Passes

Search period start: 24 October 2014 00:00
Search period end: 02 November 2014 23:00
Orbit: 413 x 416 km, 51.6° (Epoch: 24 October)

Date Brightness Start Highest point End Pass type
(mag) Time Alt. Az. Time Alt. Az. Time Alt. Az.
24 Oct -2.3 19:38:41 10° NW 19:41:44 32° NNE 19:44:04 15° E visible
24 Oct -0.7 21:15:24 10° WNW 21:16:57 21° W 21:16:57 21° W visible
25 Oct -2.8 20:26:00 10° WNW 20:29:18 58° SW 20:30:14 39° SSE visible
26 Oct -3.3 19:36:45 10° NW 19:40:05 77° NE 19:43:25 10° ESE visible
26 Oct -0.1 21:15:19 10° WSW 21:16:19 11° SW 21:16:35 11° SW visible
27 Oct -0.7 20:24:44 10° W 20:27:15 20° SW 20:29:45 10° S visible
28 Oct -1.7 19:35:00 10° WNW 19:38:05 36° SW 19:41:09 10° SSE visible
30 Oct 0.0 19:34:05 10° W 19:35:43 13° SW 19:37:20 10° SSW visible
